Location: Holcomb Observatory
(44.4922°N, 73.1654°W)
Time: 02:29:02
(UTC-05:00)

Cosmos 2360 Rocket - Visible Passes

Search period start: 27 February 2015 00:00
Search period end: 09 March 2015 01:00
Orbit: 835 x 844 km, 71.0° (Epoch: 26 February)

Date Brightness Start Highest point End Pass type
(mag) Time Alt. Az. Time Alt. Az. Time Alt. Az.
05 Mar 4.7 21:00:14 10° NNE 21:00:14 10° NNE 21:00:14 10° NNE visible
06 Mar 4.6 20:44:51 10° NNE 20:45:04 10° NNE 20:45:04 10° NNE visible
06 Mar 5.0 22:26:31 10° NNW 22:26:50 12° NNW 22:26:50 12° NNW visible
07 Mar 4.6 20:29:32 10° NNE 20:29:54 10° NNE 20:29:54 10° NNE visible
07 Mar 4.8 22:10:56 10° NNW 22:11:40 14° NNW 22:11:40 14° NNW visible
08 Mar 4.5 21:14:20 10° NNE 21:14:45 10° NNE 21:14:45 10° NNE visible
08 Mar 4.6 22:55:21 10° NNW 22:56:31 16° N 22:56:31 16° N visible
